OneWeb SL0067

operational
NORAD ID: 45425 Int'l Des: 2020-020 Owner: ONEWEB Country: UK Constellation: oneweb
LEOCIRCULARPOLARONEWEB_TYPE

About OneWeb SL0067

Description loading...

Live Position

Loading 3D Globe...

Upcoming Passes

Altitude History

Altitude vs Time

uPlot chart will show altitude changes over time

Two-Line Element Set

1 45425U 20020B 25303.30194724 -.00000429 00000-0 -12477-2 0 9997
2 45425 87.8849 66.7433 0001455 100.7092 259.4200 13.11415716272608
Epoch: Oct 30, 2025 • Age: 14 hours

Current Status

Altitude 1223.5 km
Velocity 7.24 km/s
Sub-Earth Point -13.74°S, 108.01°W
Launch Date Mar 21, 2020
Age 5.6 years
Type internet

Technical Details

Classification Payload
Mass 148.00 kg
Dry Mass 140.00 kg
Total Mass 148.00 kg
Length 1.30 m
Diameter 1.00 m
Span 5.00 m
Shape Trapezoid+2 pan
Manufacturer ONEWUS
Bus Type ARROW
Phase Status In Orbit
Owner/State ONEWEB/UK

Large Constellations

Loading constellations...